Flag for Germany Weather past 2 weeks in Rottenburg am Neckar, Baden-Württemberg, Germany

Now
54 °F

Passing clouds.


Feels Like: 54 °F
Forecast: 49 / 68 °F
Wind: 1 mph from Southwest

Location: Stuttgart-Echterdingen

Current Time: Sep 2, 2015 at 4:27:57 AM

Latest Report: Sep 2, 2015 at 4:00 AM


Visibility: 8 mi

Pressure: 30.09 "Hg

Humidity: 96%

Dew point: 53 °F

Location of Rottenburg am NeckarLocation

Historic Weather in Rottenburg am Neckar — Graph

°F

Rottenburg am Neckar temperature yesterday

Maximum temperature yesterday: 77 °F (at 4:00 PM)
Minimum temperature yesterday: 59 °F (at 10:00 PM)
Average temperature yesterday: 67 °F

Past Weeks' High & Low Weather Summary

 TemperatureHumidityPressure
High92 °F (Aug 30, 4:00 PM)97% (Aug 20, 8:00 AM)30.28 "Hg (Aug 20, 8:00 AM)
Low48 °F (Aug 26, 7:00 AM)25% (Aug 31, 6:00 PM)29.67 "Hg (Aug 24, 2:00 PM)
Average67 °F66%30.01 "Hg
* Reported Aug 18 3:00 AM — Sep 2 3:00 AM, Rottenburg am Neckar, Weather by CustomWeather, © 2015

Note: Actual official high and low records may vary slightly from our data, if they occured in-between our weather recording intervals... More about our weather records

Advertising

Rottenburg am Neckar weather history for previous 24 hours

 ConditionsComfort  
Time TempWeatherWind HumidityBarometerVisibility
3:00 AM
Wed, Sep 2
56 °FPassing clouds.1 mph96%30.08 "Hg11 mi
2:00 AM56 °FPassing clouds.2 mph94%30.07 "Hg11 mi
1:00 AM56 °FPassing clouds.1 mph93%30.07 "Hg12 mi
11:00 PM
Tue, Sep 1
59 °FOvercast.2 mph90%30.05 "Hg12 mi
10:00 PM59 °FOvercast.5 mph92%30.03 "Hg12 mi
9:00 PM60 °FLight rain. Overcast.N/A92%30.01 "Hg4 mi
8:00 PM62 °FLight rain. Low clouds.6 mph90%29.96 "Hg11 mi
7:00 PM63 °FLight rain. Overcast.3 mph89%29.96 "Hg11 mi
6:00 PM63 °FRain. Overcast.6 mph92%29.93 "Hg5 mi
5:00 PM67 °FRain showers. Overcast.9 mph90%29.88 "Hg3 mi
4:00 PM77 °FOvercast.7 mph47%29.81 "Hg25 mi
3:00 PM74 °FOvercast.3 mph58%29.83 "Hg22 mi
2:00 PM69 °FOvercast.3 mph73%29.85 "Hg22 mi
1:00 PM68 °FLight rain. Overcast.7 mph72%29.85 "Hg37 mi
12:00 PM76 °FOvercast.7 mph47%29.81 "Hg37 mi
10:00 AM72 °FOvercast.1 mph63%29.80 "Hg37 mi
9:00 AM70 °FPartly sunny.1 mph66%29.79 "Hg31 mi
8:00 AM64 °FPassing clouds.1 mph79%29.82 "Hg31 mi
7:00 AM64 °FPassing clouds.1 mph74%29.83 "Hg31 mi
6:00 AM62 °FPassing clouds.2 mph80%29.84 "Hg31 mi
5:00 AM64 °FPassing clouds.1 mph72%29.85 "Hg31 mi
4:00 AM66 °FPassing clouds.2 mph67%29.86 "Hg31 mi
Weather by CustomWeather, © 2015

See weather overviewHow to use our weather pages